Regional Weather Roundup
Issued by NWS

Home | Current Version | Previous Version | Text Only | Print | Product List | Glossary On
Versions: 1 2 3 4 5 6 7 8 9 10 11 12 13 14 15 16 17 18 19 20 21 22 23 24 25 26 27 28 29 30 31 32 33 34 35 36 37 38 39 40 41 42 43 44 45 46 47 48 49 50
000
ASUS45 KABQ 300910
RWRNM
NEW MEXICO REGIONAL WEATHER ROUNDUP
NATIONAL WEATHER SERVICE ALBUQUERQUE NM
300 AM MDT SUN APR 30 2017

NOTE: "FAIR" MEANS FEW OR NO CLOUDS BELOW 12,000 FEET AGL WITH NO
       SIGNIFICANT WEATHER OR OBSTRUCTIONS TO VISION.

      THIS PRODUCT IS RELEASED AS TWO VERSIONS.  ONE VERSION NEAR
      THE TOP OF THE HOUR CONTAINING PRELIMINARY DATA FROM ALBUQUERQUE
      AND OTHER STATIONS.  A FINAL VERSION WITH ADDITIONAL DATA IS
      ISSUED ABOUT 10 MINUTES AFTER THE HOUR.

NMZ501-503-504-510>518-301000-
NORTHWEST PLATEAU/NORTHCENTRAL MOUNTAINS

CITY           SKY/WX    TMP DP  RH WIND       PRES   REMARKS
FARMINGTON     FAIR      38  21  50 W13       30.04S WCI  30
LOS ALAMOS     CLOUDY    30  26  84 S3        30.03F
SANTA FE       LGT SNOW  31  31 100 NW6       30.02F FOG     WCI  25
TAOS             N/A     27  18  69 N5        30.02F WCI  21
ANGEL FIRE     MOCLDY    22  20  89 W9        29.97S WCI  12

$$
NMZ402-403-502-505>509-301000-
WESTCENTRAL MOUNTAINS/SOUTHWEST MOUNTAINS

CITY           SKY/WX    TMP DP  RH WIND       PRES   REMARKS
GALLUP         FAIR      25  21  85 CALM      30.11F
GRANTS         FAIR      34  23  63 W17G24    30.09S WCI  24
SILVER CITY    FAIR      37  26  62 NW10      30.10F WCI  30

$$
NMZ407-409-411-412-301000-
SOUTHERN DESERTS

CITY           SKY/WX    TMP DP  RH WIND       PRES   REMARKS
DEMING         FAIR      37  24  59 W8        30.09F WCI  31
LAS CRUCES     FAIR      37  31  81 N5        30.09S WCI  33
HOLLOMAN AFB   FAIR      36  33  89 N3        30.10S
ALAMOGORDO     FAIR      32  32 100 SE6       30.08R WCI  26
T OR C         FAIR      35  31  85 NE5       30.07S WCI  31

$$
NMZ519>523-301000-
CENTRAL VALLEYS/CENTRAL HIGHLANDS

CITY           SKY/WX    TMP DP  RH WIND       PRES   REMARKS
ALBUQUERQUE    CLOUDY    36  35  96 S5        30.07S WCI  32
MORIARTY ARPT  CLOUDY    35  31  87 NW8       30.04S WCI  28
CLINES CORNERS MOCLDY    28  25  88 W20       30.00F WCI  15
BELEN          CLOUDY    37  35  92 CALM      30.07F
SOCORRO        CLOUDY    37  35  92 S3        30.07F

$$
NMZ524>526-539-540-301000-
SOUTHCENTRAL MOUNTAINS

CITY           SKY/WX    TMP DP  RH WIND       PRES   REMARKS
RUIDOSO        MOCLDY    28  23  80 W3        30.04F

$$
NMZ527>531-301000-
NORTHEAST HIGHLANDS/NORTHEAST PLAINS

CITY           SKY/WX    TMP DP  RH WIND       PRES   REMARKS
LAS VEGAS      CLOUDY    23  22  96 S5        29.97F WCI  17
RATON          FLURRIES  28  20  71 N15G29    29.93F WCI  16
CLAYTON        LGT SNOW  29  28  96 NW23G33   29.85F VSB 1   WCI  15

$$
NMZ532>537-301000-
EASTCENTRAL PLAINS

CITY           SKY/WX    TMP DP  RH WIND       PRES   REMARKS
SANTA ROSA     CLOUDY    32  32 100 W3        30.00F
TUCUMCARI      FLURRIES  34  32  92 W17       29.96F WCI  23
CANNON AFB     CLOUDY    33  33 100 NW25      29.94F WCI  20
CLOVIS AIRPORT FAIR      32  27  80 NW20G26   29.94F WCI  20

$$
NMZ028-029-538-301000-
SOUTHEAST PLAINS

CITY           SKY/WX    TMP DP  RH WIND       PRES   REMARKS
ROSWELL        MOCLDY    37  32  82 W6          N/A  WCI  32
ARTESIA        FAIR      36  34  93 NW10      30.07F WCI  28
CARLSBAD       FAIR      36  32  85 W9        30.07F WCI  29
HOBBS          FAIR      36  32  87 W13       30.02R WCI  27


$$



USA.gov is the U.S. government's official web portal to all federal, state and local government web resources and services.